Historyczne dane pomiarowe

Dodano dane terminowe – wersja testowa.

Dane z okresu 1951-2019

Wersja bazy: 1.34 [2019-03-16, lista zmian], aktualizacja planowana na 2019-04-15

Dane meteo z obszaru Polski uzyskane na podstawie danych udostępnionych przez Instytut Meteorologii i Gospodarki Wodnej – Państwowy Instytut Badawczy.

 

Wybierz Datę:    

       

TemperaturaWilgotnośćWiatrCiśnienieOpadyŚniegCzas trwania zjawisk
 Stacja t tx tn tng RH VA  wxwx mslp ppp RRR   cm mm wxwxwxwxwxwxwx
1956-11-09 -3.5 1.1 -5.8 -9.6 76.3- 3.3 0.7---- 0.0------------
1956-11-08 -2.2 1.1 -4.0 -5.1 84.0- 6.7 0.7---- 0.0------------
1956-11-07 0.3 3.3 -0.7 -2.1 78.3- 4.3 4.7---- 0.0------------
1956-11-06 1.9 4.1 0.7 -1.1 76.0- 6.0 6.0---- 0.2------------
1956-11-05 3.9 7.3 0.3 -0.6 85.3- 7.3 5.0---- 0.5------------
1956-11-04 0.8 4.1 -3.5 -9.5 64.5- 4.3 2.3---- 0.0------------
1956-11-03 -0.1 2.6 -4.6 -8.2 89.5- 8.0 0.0---- 0.2------------
1956-11-02 0.0 4.0 -2.3 -2.0 90.0- 2.7 0.7---- 0.0------------
1956-11-01 -0.3 1.6 -8.2-11.1 60.5- 6.7 5.3---- 0.2------------
1956-10-31 -5.9 -1.4 -7.5 -9.1 72.3- 0.0 2.3---- 0.0------------
1956-10-30 -0.6 3.9 -1.8 0.5 80.0- 8.0 6.0---- 0.0------------
1956-10-29 5.2 9.4 3.7 3.0 82.3- 4.7 3.0---- 0.0------------
1956-10-28 9.4 9.9 9.1 7.0 94.8- 8.0 4.3---- 12.8------------
1956-10-27 9.6 11.5 7.4 7.0 92.5- 8.0 5.3---- 2.0------------
1956-10-26 8.0 11.6 7.6 5.0 92.8- 8.0 2.7---- 2.3------------
1956-10-25 11.0 13.9 7.6 0.0 88.8- 7.3 1.0---- 0.0------------
1956-10-24 11.2 13.9 4.9 0.1 88.5- 5.3 2.3---- 0.0------------
1956-10-23 8.3 12.0 5.7 9.6 83.3- 5.3 2.7---- 0.0------------
1956-10-22 11.3 12.0 8.8 2.5 87.3- 6.0 3.0---- 0.0------------
1956-10-21 11.2 16.3 5.2 2.6 88.3- 2.7 1.7---- 0.0------------
1956-10-20 9.6 12.8 5.2 0.2 89.0- 7.3 1.0---- 0.0------------
1956-10-19 10.5 14.0 7.9 1.5 93.8- 7.0 2.7---- 2.3------------
1956-10-18 9.3 11.9 3.3 1.3 95.0- 8.0 1.3---- 4.0------------
1956-10-17 5.9 13.1 -1.0 -3.7 80.3- 0.0 2.0---- 0.0------------
1956-10-16 3.8 12.1 -1.6 -4.1 86.0- 0.7 0.7---- 0.0------------
1956-10-15 4.1 11.9 0.4 -3.1 85.0- 1.0 2.3---- 0.0------------
1956-10-14 7.0 11.5 4.7 5.1 75.0- 1.3 8.0---- 0.0------------
1956-10-13 11.0 12.6 8.9 7.0 74.3- 7.7 14.7---- 5.6------------
1956-10-12 10.0 11.8 9.2 8.2 80.0- 8.0 7.0---- 0.0------------
1956-10-11 8.7 11.5 4.5 3.3 77.5- 7.0 7.0---- 0.0------------
1956-10-10 4.4 9.5 -0.6 -4.6 83.0- 4.0 1.7---- 0.0------------
1956-10-09 5.6 8.4 1.3 -2.6 91.3- 3.7 2.3---- 3.1------------
1956-10-08 5.6 8.3 3.9 2.3 87.5- 6.0 3.0---- 0.6------------
1956-10-07 7.3 8.7 6.0 5.2 79.3- 8.0 12.0---- 1.2------------
1956-10-06 6.9 8.8 5.1 0.9 92.5- 8.0 4.7---- 32.4------------
1956-10-05 9.0 14.4 6.9 2.5 86.3- 5.0 1.3---- 0.0------------
1956-10-04 9.8 13.4 3.4 0.0 91.8- 5.3 2.0---- 0.8------------
1956-10-03 12.7 19.0 8.2 9.2 86.0- 5.0 5.3---- 0.0------------
1956-10-02 16.3 25.3 8.5 5.0 78.3- 1.3 2.7---- 0.3------------
1956-10-01 15.2 24.7 5.2 0.8 81.0- 2.0 1.7---- 0.0------------
1956-09-30 11.5 18.0 8.4 1.5 85.8- 4.3 2.7---- 0.0------------
1956-09-29 16.3 20.6 14.5 13.6 72.3- 5.0 7.3---- 0.0------------
1956-09-28 15.0 18.8 9.9 5.4 80.0- 7.3 3.7---- 0.0------------
1956-09-27 15.9 23.6 8.7 6.6 73.5- 0.7 3.3---- 0.0------------
1956-09-26 13.8 23.2 4.9 3.2 74.5- 0.0 2.3---- 0.0------------
1956-09-25 10.9 18.7 3.4 0.3 72.0- 0.0 3.3---- 0.0------------
1956-09-24 8.7 15.8 4.1 0.7 61.8- 0.0 4.7---- 0.0------------
1956-09-23 11.1 18.3 7.4 3.0 71.5- 3.0 4.7---- 0.0------------
1956-09-22 11.7 20.0 3.4 -0.6 75.3- 0.0 1.7---- 0.0------------
1956-09-21 9.5 19.7 1.9 -0.5 84.0- 0.0 0.0---- 0.0------------
1956-09-20 10.4 18.5 4.0 0.9 75.5- 2.0 1.3---- 0.0------------
1956-09-19 8.5 17.6 0.6 -1.5 77.8- 0.7 1.0---- 0.0------------
1956-09-18 8.3 15.4 5.0 2.3 79.5- 1.7 2.0---- 0.0------------
1956-09-17 9.5 15.6 6.9 4.5 74.5- 4.0 3.3---- 0.0------------
1956-09-16 11.0 14.2 5.5 2.2 71.5- 8.0 5.0---- 0.8------------
1956-09-15 10.4 16.1 6.4 2.0 84.3- 5.0 3.3---- 0.0------------
1956-09-14 9.2 15.1 5.4 3.0 88.8- 3.7 1.7---- 0.3------------
1956-09-13 8.3 15.3 6.1 6.4 88.3- 4.0 3.0---- 3.7------------
1956-09-12 11.9 17.2 9.3 6.2 83.5- 5.3 6.0---- 6.6------------
1956-09-11 13.2 17.2 12.0 12.5 95.5- 5.3 1.0---- 5.3------------
214.2 ms

 

Źródłem pochodzenia danych jest Instytut Meteorologii i Gospodarki Wodnej – Państwowy Instytut Badawczy. Dane Instytutu Meteorologii i Gospodarki Wodnej – Państwowego Instytutu Badawczego zostały przetworzone.

Dane źródłowe można odnaleźć na stronie https://dane.imgw.pl